Theta_e
362 363 363 363 363 362 361 362 363 363 363 363 364 365 364 364 363 363 364 363 364 365 366 366 365 366 364 365 362 363 365 364 366 367 368 367 366 367 365 365 363 362 365 365 365 367 368 367 368 368 369 367 365 363 362 364 366 363 363 361 359 361 359 356 351 350 355 357 353 352 354 356 351 355 354 354 358 360 358 363 362 359 358 358 358
362 363 364 363 363 363 363 362 363 364 363 364 363 364 364 365 365 365 362 365 365 364 366 366 366 365 365 365 367 365 367 369 364 366 366 367 367 365 365 365 364 363 364 364 366 365 368 369 367 368 370 369 365 362 361 359 362 361 361 361 359 360 363 357 355 352 351 357 356 360 357 359 356 361 359 356 357 360 359 358 360 363 361 360 358
361 364 363 364 364 365 364 363 364 364 363 362 361 362 364 365 365 364 362 362 366 365 364 365 367 368 366 366 368 367 368 369 367 365 366 368 368 364 364 365 365 363 362 363 365 367 366 368 366 366 367 367 368 366 363 361 360 360 360 360 360 360 362 363 358 354 353 354 359 356 356 358 358 359 361 360 361 360 359 359 357 357 359 360 360
361 363 364 363 364 365 365 365 364 364 362 361 361 362 362 363 364 363 363 361 362 366 365 364 366 368 367 367 368 369 368 368 367 367 366 368 368 367 366 366 366 366 364 364 364 365 365 367 365 364 366 366 367 366 365 366 365 364 363 363 363 362 363 363 364 360 358 355 359 358 360 359 359 361 362 362 359 359 358 359 358 357 358 359 359
361 362 363 362 363 364 364 363 363 363 362 361 361 361 361 361 364 363 363 361 361 364 365 366 366 367 366 367 367 368 368 368 368 365 365 367 367 366 367 367 367 367 366 366 365 366 366 365 365 366 367 366 366 366 364 365 367 365 364 365 365 365 365 364 364 361 357 355 357 361 362 362 362 363 363 359 359 360 361 359 358 360 362 361 359
361 362 362 361 363 364 365 363 362 363 362 361 361 361 360 361 362 363 363 362 361 360 364 364 364 366 368 368 368 369 370 369 369 368 363 365 367 366 366 367 366 368 368 365 367 368 366 367 367 367 367 365 365 364 367 367 368 365 365 365 366 364 363 362 361 360 357 355 355 355 359 357 358 360 363 361 358 356 357 359 359 360 361 359 360
361 361 362 361 363 365 364 363 363 362 363 362 361 361 361 360 361 362 363 362 361 360 361 364 365 366 368 368 367 369 370 369 370 370 367 365 365 367 364 365 366 367 367 365 364 365 367 367 368 368 367 367 365 364 366 368 366 366 366 367 367 364 361 360 360 358 356 355 355 356 356 358 359 357 361 363 361 358 355 356 356 361 361 360 358
360 361 362 362 364 364 365 366 363 364 365 366 364 362 362 361 362 363 364 363 360 360 360 361 364 365 366 367 368 368 370 370 371 371 370 367 365 366 367 364 363 365 365 366 364 363 364 365 365 368 369 370 370 369 368 366 368 367 367 367 366 364 362 359 358 356 356 354 353 353 355 356 358 360 360 361 357 358 360 357 353 354 357 360 361
360 360 362 362 364 366 367 367 366 366 366 366 365 364 363 364 364 364 365 364 361 361 361 361 363 365 366 366 367 367 366 368 369 369 369 369 367 364 366 366 364 362 363 363 365 365 362 361 362 363 368 370 369 368 369 368 368 366 368 368 367 363 360 358 358 356 357 356 355 356 354 355 357 357 356 357 356 355 358 358 357 357 358 357 360
360 361 361 362 365 367 367 368 367 367 366 366 367 366 365 365 364 364 364 364 365 364 364 363 362 363 364 366 367 366 365 367 362 348 354 368 369 364 365 367 367 365 364 363 361 362 363 363 359 365 370 369 364 356 351 352 352 358 364 367 366 364 359 359 358 358 357 355 354 354 352 353 354 358 357 358 359 360 358 357 355 355 356 356 357
361 361 362 364 365 367 368 367 367 366 367 367 368 367 366 366 366 365 365 366 366 367 365 363 361 362 363 364 365 365 365 364 346 336 338 344 365 369 366 367 369 368 366 367 365 362 362 364 366 366 370 363 365 349 347 343 343 342 342 345 355 365 363 357 357 361 357 357 356 356 353 354 356 360 357 357 358 358 359 360 358 357 355 353 350
360 362 362 364 366 367 367 367 367 367 367 367 368 368 367 367 366 366 365 365 366 366 364 364 365 363 362 364 364 365 366 351 335 333 335 336 346 365 366 366 366 367 368 365 365 365 363 362 363 364 367 369 369 370 356 344 339 338 337 337 339 340 343 360 361 358 359 357 356 357 357 356 357 359 358 358 359 359 359 358 359 357 355 354 354
361 362 363 364 367 367 368 367 366 367 368 368 368 368 367 366 366 366 364 366 367 366 366 365 365 364 363 364 363 364 365 345 331 331 333 332 334 348 361 364 363 364 366 367 367 367 367 366 364 363 363 371 367 368 371 371 344 333 335 336 336 334 332 332 336 357 361 359 358 357 358 359 357 358 362 360 361 356 357 355 356 356 356 354 353
363 362 363 365 366 368 368 367 367 367 368 368 368 368 367 366 367 366 366 367 366 366 365 365 365 366 365 364 364 364 364 345 329 328 329 329 330 339 362 361 362 362 364 366 366 368 368 367 366 366 367 368 370 368 368 368 369 369 361 358 361 355 336 330 329 329 341 357 359 358 362 366 361 363 362 363 360 356 355 354 356 354 354 353 356
362 363 363 365 367 367 367 367 367 367 368 368 368 367 366 367 367 366 364 364 365 365 365 365 366 366 365 364 363 362 361 337 326 325 325 325 327 334 361 361 361 362 364 365 368 368 369 369 369 368 369 369 369 369 368 368 369 368 366 364 368 370 369 362 355 354 352 353 359 362 365 366 365 366 366 365 362 361 359 357 357 355 355 356 354
362 364 363 365 366 366 366 366 367 367 367 367 366 366 366 367 366 366 365 363 365 365 366 365 365 365 365 365 362 362 362 335 324 323 322 323 326 350 360 361 362 362 363 365 366 369 369 369 370 369 369 369 364 349 355 368 367 366 365 364 363 364 363 362 349 353 366 366 365 365 367 369 352 365 364 361 360 359 357 356 354 353 351 348 346
362 363 362 364 365 365 365 364 365 366 366 365 365 365 365 366 366 367 364 363 362 362 364 363 365 364 364 365 364 363 363 343 322 320 320 320 329 357 360 361 361 362 363 364 366 367 369 371 370 368 369 370 357 336 335 348 365 364 363 363 363 362 361 365 345 334 335 334 336 338 327 325 325 324 322 322 337 345 349 345 344 347 346 344 345
361 363 362 364 364 365 365 365 365 365 366 365 364 364 365 366 366 366 364 362 359 361 363 364 365 365 363 363 363 363 364 347 320 318 318 318 335 359 361 360 361 362 363 365 366 367 368 365 368 368 369 368 346 332 331 349 365 364 363 362 361 360 362 363 368 367 331 328 328 325 324 325 323 322 321 321 322 328 343 340 347 347 346 346 342
360 362 362 364 364 364 364 364 365 364 365 365 365 364 365 365 365 366 364 364 362 363 363 363 363 364 363 362 356 360 364 350 319 319 317 316 336 361 361 361 360 361 362 363 366 366 367 365 361 358 362 359 339 328 327 348 365 364 363 362 358 359 361 366 365 368 373 370 367 362 356 341 347 352 352 330 324 331 344 348 348 346 343 344 345
362 363 363 363 365 364 364 365 365 364 365 365 366 365 365 364 365 364 364 364 362 361 361 362 362 362 363 362 362 361 361 365 346 317 316 314 322 359 362 360 360 361 362 362 363 366 366 368 362 335 333 333 331 322 321 329 361 364 364 361 360 357 364 365 370 371 370 366 365 361 357 356 354 356 358 358 356 349 349 352 353 350 347 347 347
362 363 364 363 363 363 364 365 364 364 365 365 365 365 365 364 363 364 362 362 362 362 361 361 361 363 363 364 364 363 363 363 364 316 315 313 317 331 360 361 362 362 363 362 362 363 364 365 367 341 326 326 325 318 316 319 335 364 364 361 362 368 357 368 369 356 362 361 356 354 354 353 353 350 345 348 345 346 348 349 348 349 346 340 337
363 364 364 363 362 363 363 365 365 363 366 367 366 365 366 365 365 364 362 363 364 363 365 363 362 362 364 364 366 366 364 353 368 323 316 313 315 318 352 361 362 363 363 363 362 362 364 363 366 346 325 324 322 317 314 318 321 357 362 336 332 333 361 365 365 362 358 354 351 348 349 347 343 343 344 345 345 347 345 345 344 345 343 340 338
364 365 365 363 363 363 364 365 364 363 364 366 367 366 366 365 366 366 365 365 364 364 365 364 363 362 364 365 365 367 368 367 339 348 317 313 312 314 324 343 335 364 362 361 360 360 362 365 365 343 321 317 316 314 314 316 324 343 329 328 327 328 343 359 360 357 351 347 345 346 346 343 344 346 344 343 342 344 341 343 346 346 346 346 347
366 365 365 364 364 364 364 365 366 366 367 367 367 367 366 366 366 366 366 364 362 362 362 361 360 359 360 360 363 365 370 367 347 335 334 312 312 311 314 320 330 356 362 361 361 360 363 365 361 318 312 308 309 311 313 317 339 324 320 321 323 333 354 358 352 353 345 342 345 345 346 347 346 342 341 343 339 344 345 348 349 349 348 347 347
366 365 365 364 365 366 366 367 367 367 367 367 367 366 368 367 365 367 367 364 362 361 359 361 361 360 360 360 362 364 366 366 368 350 330 317 313 311 313 316 318 322 357 360 363 357 323 310 307 309 309 308 308 311 313 317 320 316 315 319 333 353 355 350 350 351 346 346 345 349 347 345 344 343 345 345 346 349 348 344 344 345 345 345 343
367 366 366 365 366 367 366 366 368 368 368 367 368 368 368 366 365 366 364 362 362 360 360 361 361 361 361 362 362 364 365 366 368 366 340 329 321 314 314 314 318 319 333 352 325 316 313 312 310 310 312 319 338 350 351 342 317 318 319 327 344 347 342 343 350 347 344 342 342 341 340 340 340 342 344 347 345 341 341 340 340 340 339 338 336
367 366 367 366 367 367 367 364 366 367 368 367 368 368 367 367 367 365 363 362 362 361 361 362 361 360 360 361 363 364 365 365 367 368 364 355 351 337 326 328 319 323 331 346 337 341 330 336 339 329 332 330 338 332 330 323 328 330 335 341 345 344 340 343 345 345 343 344 341 339 339 340 340 341 340 339 339 340 342 339 337 335 336 335 334
365 366 366 366 366 367 366 364 364 366 366 366 365 366 367 367 366 365 364 363 362 361 362 360 359 361 361 362 364 363 363 364 366 366 366 365 363 358 349 346 344 343 345 349 353 354 351 328 328 343 344 343 339 336 335 336 336 336 341 341 340 339 341 342 343 344 346 345 341 340 338 339 337 336 336 336 335 337 340 337 335 334 333 334 332
366 366 365 366 365 367 367 366 365 365 367 368 368 374 373 367 367 368 370 370 368 365 364 362 363 364 364 363 362 362 365 363 366 345 377 346 363 365 360 355 354 351 345 334 353 355 350 349 349 347 346 342 337 335 334 335 335 337 338 338 339 339 340 339 341 341 342 339 336 337 334 336 336 335 335 334 335 336 340 337 337 334 335 334 331
365 366 366 366 367 366 366 366 365 364 367 366 364 342 308 300 316 354 367 330 318 319 323 363 365 369 364 366 368 366 365 365 328 330 325 323 318 307 321 331 331 345 330 323 343 353 349 349 348 346 344 340 337 335 333 333 333 333 335 331 336 337 337 337 336 336 340 336 337 334 336 333 334 334 333 331 335 335 336 329 334 334 332 331 331
363 364 365 366 364 367 367 368 368 367 368 369 369 359 354 339 299 296 305 313 306 295 294 295 300 308 340 369 341 306 308 303 305 308 309 306 303 302 306 309 311 312 315 343 351 353 348 348 346 344 341 340 336 333 332 332 333 333 334 333 333 331 331 333 337 334 333 333 336 335 333 332 332 331 331 332 332 334 334 333 333 334 331 330 329
365 366 366 368 366 368 366 367 369 369 367 368 369 364 362 359 350 306 296 299 299 295 295 294 293 296 305 322 348 344 309 300 299 300 300 300 303 303 303 305 306 310 315 324 352 353 351 349 346 344 342 338 334 332 331 332 332 334 334 331 332 334 333 334 335 336 333 334 333 331 332 332 331 330 330 330 328 332 332 331 332 331 330 331 329
369 369 369 367 365 367 366 369 368 367 365 365 366 366 362 360 358 352 326 299 297 298 297 296 296 295 295 295 298 314 311 301 298 299 299 299 300 302 302 303 306 307 313 342 355 352 350 349 346 345 342 339 335 333 333 334 332 330 330 331 332 332 334 337 337 337 333 334 333 332 330 331 329 330 328 329 329 330 331 330 331 331 329 329 327
368 368 367 368 367 366 365 364 364 364 364 363 363 362 361 361 360 357 349 344 335 314 304 298 297 299 295 294 296 297 297 298 299 299 299 300 300 301 304 313 303 309 324 352 354 352 350 348 345 342 339 337 335 334 333 333 334 334 333 334 334 335 334 336 337 334 332 330 332 330 329 330 329 330 332 331 331 330 330 329 330 328 328 328 326
365 363 364 366 366 365 365 365 364 364 364 364 360 359 360 360 360 356 354 352 351 340 331 322 305 297 311 303 296 296 297 298 299 300 300 302 303 303 310 333 337 340 343 341 340 338 335 334 334 333 334 334 334 336 336 336 334 332 332 333 332 332 332 334 334 334 333 331 332 330 330 329 331 329 330 330 329 330 330 329 331 330 328 328 327
360 360 364 364 363 364 364 366 366 364 364 363 364 359 359 359 356 354 350 347 338 329 323 320 318 307 300 297 297 298 298 299 300 301 301 301 304 313 339 341 341 340 335 333 333 333 334 334 334 333 336 336 335 335 334 333 333 332 333 332 330 331 331 331 330 332 335 333 331 330 327 332 330 329 331 330 330 329 329 328 328 327 328 327 326
352 355 358 362 362 363 364 365 366 365 354 357 362 361 359 358 355 354 345 339 334 330 326 324 325 324 318 318 307 301 302 303 303 303 304 307 310 337 344 341 339 336 332 332 333 332 333 335 336 335 334 334 335 335 336 336 335 335 331 340 340 340 332 336 333 334 333 332 331 333 333 332 331 332 329 330 328 328 328 330 329 325 326 323 321
344 342 345 347 359 361 362 361 356 347 356 359 361 359 356 356 352 343 338 334 332 330 330 331 327 330 327 326 326 326 321 309 311 314 316 319 332 342 339 334 333 332 331 332 333 332 332 333 335 335 334 334 334 334 333 333 332 331 331 333 334 332 324 326 327 335 336 334 333 331 330 331 331 331 327 329 328 328 327 328 326 326 326 324 324
346 332 327 329 338 355 356 353 353 354 356 355 355 352 348 345 342 339 337 335 335 335 334 334 333 332 331 332 333 332 330 335 335 333 333 336 338 339 337 333 331 331 331 331 331 332 332 332 333 335 334 335 334 334 335 334 334 333 333 331 330 330 330 332 333 333 332 331 331 331 331 331 331 330 330 329 327 327 327 328 328 326 327 325 326
345 344 337 330 344 345 349 351 350 351 350 352 349 347 343 340 336 334 334 335 335 336 336 334 332 333 333 334 333 335 334 333 332 332 332 332 333 334 333 331 331 330 331 331 331 332 332 332 332 331 332 332 332 330 331 332 331 331 334 333 331 332 333 332 331 330 330 329 330 331 330 331 332 330 332 330 329 328 328 328 326 327 326 326 325
345 343 342 334 333 344 346 344 346 346 345 344 344 341 338 336 336 336 335 333 334 333 332 332 332 333 331 323 314 322 334 332 331 330 330 329 330 330 329 329 329 329 329 330 330 331 330 328 328 327 328 329 330 330 330 330 330 330 330 330 331 330 331 331 331 331 330 329 329 330 332 331 330 330 328 329 323 326 328 328 327 327 325 324 325
343 341 340 339 337 338 337 336 337 336 338 337 337 335 333 334 335 335 332 331 328 326 324 323 323 322 312 306 307 310 326 327 325 323 323 322 322 321 322 324 326 326 326 326 327 326 325 324 324 325 326 327 329 328 328 329 330 330 330 330 329 329 330 329 331 331 330 330 330 330 330 330 329 327 328 322 329 329 329 328 327 326 326 325 325
337 336 336 335 335 334 333 331 330 329 328 328 327 328 328 329 329 329 328 327 326 324 322 321 320 320 317 310 314 312 323 323 322 320 319 319 319 318 318 319 319 321 322 322 321 320 318 316 315 315 315 315 315 317 318 319 319 321 324 325 325 326 327 326 326 326 327 327 328 327 328 328 328 328 328 327 328 329 327 327 327 326 325 325 324
335 333 331 329 329 329 329 328 325 323 322 322 321 321 323 324 323 323 322 321 321 321 321 320 319 318 318 317 317 321 322 320 318 317 316 316 314 313 313 314 315 315 316 316 316 316 317 316 314 313 313 313 312 313 312 313 313 314 314 314 313 313 316 316 317 318 319 322 323 324 326 326 327 327 327 327 328 326 325 324 324 323 323 324 324
331 329 328 326 326 326 325 324 322 321 320 319 317 317 317 317 316 317 317 316 316 318 319 319 318 318 317 317 316 316 317 316 315 314 314 314 314 315 314 314 314 313 313 314 315 315 314 314 313 312 310 309 309 310 310 310 311 310 309 309 309 308 307 307 308 309 311 315 318 320 321 321 323 324 323 323 322 323 321 322 323 320 321 322 322
327 327 325 324 321 320 321 321 321 320 319 317 316 314 314 313 312 311 311 311 310 311 311 313 314 314 314 314 313 312 312 312 312 311 311 311 311 312 312 312 311 310 309 309 310 311 311 310 310 309 309 309 309 309 308 307 306 306 306 305 305 304 304 304 304 305 308 311 312 314 314 316 318 318 318 319 319 320 321 321 322 320 322 320 322
323 322 320 320 318 317 317 317 316 315 315 315 314 312 311 310 309 309 309 308 308 307 307 307 308 307 307 307 309 308 309 309 310 311 311 310 309 309 309 308 307 308 308 308 309 308 309 310 309 309 309 308 308 307 307 307 306 305 304 303 301 301 301 301 302 305 308 309 310 311 313 314 315 317 316 317 318 319 319 318 319 319 320 320 319
318 317 317 316 315 314 313 313 312 312 311 311 311 310 310 310 309 308 307 307 306 306 305 305 304 305 305 305 306 305 305 305 306 307 307 308 308 309 309 309 308 307 307 307 307 307 307 307 307 308 307 307 307 307 307 306 306 305 303 302 298 295 294 293 302 307 308 309 309 311 313 315 315 315 315 316 316 316 315 314 316 316 316 316 315
312 312 311 311 310 310 309 308 309 308 308 308 308 308 308 308 308 307 306 305 305 305 305 304 304 304 304 304 305 305 305 305 304 304 305 305 306 306 306 306 307 306 306 306 306 306 306 306 306 306 305 305 305 304 302 301 301 301 301 299 295 290 289 290 297 303 297 305 312 314 316 317 316 315 314 314 314 313 313 313 314 313 314 314 314
309 309 308 308 307 307 307 307 306 306 306 305 305 305 305 305 304 304 304 304 304 303 302 302 303 303 303 303 303 303 303 304 304 304 304 304 304 304 304 304 305 305 305 305 305 304 304 304 304 304 304 304 303 302 300 299 299 297 297 295 289 288 288 289 293 294 299 311 315 316 315 316 316 315 315 315 314 313 312 312 312 311 312 311 312
307 306 306 306 305 306 306 305 305 305 305 304 304 304 303 303 302 302 303 303 302 302 302 303 302 303 302 303 303 302 302 303 304 303 303 303 302 302 302 302 301 301 300 300 300 301 301 301 301 301 302 303 302 301 300 298 297 295 291 289 288 288 289 290 298 292 291 296 314 315 314 314 314 314 313 314 313 312 311 312 312 312 312 311 311
Wind_Speed
20 18 17 17 18 18 18 17 18 16 16 15 14 13 12 12 12 11 10 11 10 11 11 11 10 10 10 9 10 9 9 9 8 8 8 8 7 7 6 7 8 7 7 8 7 7 7 7 7 7 6 6 5 5 6 6 6 6 6 6 6 6 6 6 8 9 7 7 7 8 8 8 9 8 10 9 9 7 10 10 11 11 10 10 11
20 19 18 17 19 19 19 17 17 16 17 15 14 13 12 12 12 11 12 11 11 11 11 11 11 11 11 10 9 9 9 9 9 8 9 9 9 7 8 8 8 8 8 8 8 7 7 7 7 7 7 7 7 7 7 6 6 6 6 6 6 6 6 7 8 8 10 7 7 7 8 7 9 8 8 9 10 9 10 10 9 10 10 10 10
19 18 18 18 19 18 18 17 16 18 18 15 16 15 14 13 12 12 12 11 11 11 11 11 11 11 11 10 10 10 10 10 9 9 9 10 10 9 8 9 9 9 9 9 9 8 8 8 8 7 6 7 7 7 7 7 6 6 7 6 7 7 7 8 8 9 10 9 7 8 8 7 8 8 9 9 10 10 11 11 11 9 9 10 10
19 19 18 19 20 18 18 17 19 18 18 16 17 16 14 14 13 13 13 12 12 11 12 12 11 11 11 11 11 10 11 10 10 10 10 10 10 10 9 9 9 9 9 9 9 9 9 8 8 7 7 7 7 6 6 6 6 6 7 7 7 8 7 7 9 8 8 9 7 8 8 8 8 9 9 9 11 10 10 10 10 10 10 10 12
19 20 20 20 20 19 19 18 18 19 18 16 18 17 16 14 13 14 14 13 13 12 11 12 11 12 11 12 12 12 11 11 11 11 10 10 10 10 9 10 10 10 9 9 9 9 9 9 8 8 8 8 7 8 7 8 7 7 7 7 6 6 6 6 8 8 9 10 9 8 8 8 8 9 9 10 10 10 11 11 10 9 9 10 11
20 19 19 20 19 20 19 18 19 19 19 18 18 17 16 15 14 14 14 14 14 13 12 12 12 13 12 12 12 12 11 11 11 11 11 11 10 10 9 10 10 10 10 10 10 9 9 9 9 9 9 9 8 8 8 9 8 8 8 7 6 6 7 8 8 8 9 10 10 10 8 9 9 8 9 10 10 10 9 7 7 9 9 10 10
19 19 19 20 18 19 19 19 18 18 17 17 16 16 16 16 16 15 14 14 14 14 13 13 12 13 13 13 12 12 12 12 11 11 11 11 10 10 10 10 10 9 9 10 10 10 10 9 9 10 10 10 9 9 9 9 8 9 8 7 7 6 7 7 7 8 9 10 9 9 9 8 8 10 8 8 10 10 10 9 7 5 7 8 9
20 19 19 18 18 19 18 18 18 17 16 15 15 15 15 15 15 14 13 14 15 15 15 14 13 12 13 13 12 11 11 11 11 11 11 11 11 11 10 10 10 10 9 9 10 10 10 10 10 10 10 10 10 9 9 8 7 8 7 6 6 6 6 6 7 7 8 9 9 9 9 10 9 10 9 8 9 9 8 8 11 12 11 10 11
20 19 18 18 18 18 17 16 15 16 15 15 15 15 15 15 14 14 13 13 13 14 14 14 13 13 13 12 12 12 11 11 10 11 11 12 11 11 11 11 10 10 9 10 10 10 10 10 10 10 10 10 11 9 8 6 6 7 6 6 7 7 7 7 7 8 9 9 10 9 10 11 11 11 10 8 10 12 12 12 11 11 12 13 12
19 19 19 18 17 17 17 15 15 15 15 15 15 15 14 14 14 14 14 14 13 12 13 13 14 13 13 13 12 11 11 10 11 14 12 10 11 10 9 10 10 9 9 9 10 10 10 10 9 10 9 9 10 11 12 11 10 10 8 7 7 7 7 7 7 8 9 10 10 10 11 11 11 10 9 10 9 10 11 11 13 13 13 12 11
19 19 19 17 17 16 16 15 15 16 16 15 15 15 15 13 13 14 13 13 13 12 12 14 14 13 13 12 13 12 11 10 14 15 15 13 10 10 9 9 9 9 10 10 9 10 9 9 9 9 9 9 11 14 14 15 15 14 15 14 11 9 8 9 9 9 10 11 11 11 11 12 12 11 11 9 8 10 10 10 12 12 11 13 16
20 18 18 17 17 17 16 16 16 16 15 16 15 15 14 14 14 14 13 14 12 12 13 13 13 12 11 12 13 12 12 12 15 16 16 16 13 10 9 9 9 9 10 10 9 9 9 9 9 8 9 10 11 11 14 16 16 15 15 15 15 15 12 10 10 10 11 11 12 11 12 13 12 10 9 8 8 10 12 13 12 12 14 12 9
18 18 17 18 17 16 16 16 16 16 16 15 14 14 15 15 14 14 15 13 12 12 12 12 13 12 12 12 12 12 12 13 16 17 17 17 17 14 10 9 9 10 10 10 10 9 8 8 8 8 7 10 10 10 10 11 15 18 16 16 16 15 15 16 16 14 12 13 12 13 13 12 13 10 6 8 10 12 13 14 13 13 12 14 13
17 18 17 17 17 17 16 16 16 16 15 15 15 15 15 16 15 13 12 12 12 13 13 13 12 12 12 12 12 12 13 12 17 17 17 17 17 14 12 12 11 10 10 10 9 10 10 9 8 8 8 9 9 10 10 11 9 8 10 10 11 14 17 19 19 20 18 14 15 15 14 11 10 8 10 10 12 12 13 15 15 16 16 16 16
16 17 17 17 16 16 17 16 16 16 16 15 15 15 16 14 14 13 13 13 13 13 13 13 12 13 13 13 13 13 13 13 17 18 18 18 17 14 12 12 11 11 11 11 11 10 10 9 10 9 9 9 9 10 10 10 9 9 10 10 10 11 10 12 14 12 12 13 15 18 14 12 11 10 11 10 11 10 10 14 15 16 18 18 17
16 16 17 16 17 17 18 17 16 16 16 16 16 16 15 15 14 13 12 12 12 12 12 12 13 14 14 14 14 14 13 15 16 18 18 18 17 11 12 12 12 11 11 11 11 11 11 11 10 10 10 10 10 11 10 10 10 11 10 11 11 11 11 10 10 11 13 13 13 14 11 4 4 10 11 12 11 12 11 10 12 13 14 15 15
17 17 17 17 18 17 17 17 16 16 16 16 16 16 15 15 14 12 13 13 13 13 12 13 12 14 15 14 15 13 13 13 17 18 18 19 14 11 12 11 11 12 12 11 11 11 11 11 12 10 11 11 11 12 13 12 12 12 12 12 11 11 11 9 12 16 17 18 15 6 8 5 6 7 11 13 10 9 10 11 12 11 11 12 13
17 17 17 17 17 17 17 17 16 16 15 16 16 15 15 13 14 13 14 14 14 14 13 12 13 13 15 15 15 14 14 13 18 18 19 20 17 13 11 11 12 11 12 12 11 11 12 14 13 12 11 10 11 13 13 11 12 12 12 12 12 12 11 11 7 9 14 5 3 6 9 10 10 11 13 15 14 9 8 10 10 8 10 9 11
17 18 18 17 16 16 16 16 16 16 16 16 15 15 15 14 13 12 13 13 13 12 12 12 12 12 13 15 13 15 14 12 18 19 20 21 18 12 12 11 12 12 11 11 11 10 11 11 15 14 12 11 9 12 13 12 12 12 12 12 12 13 12 10 10 9 7 5 4 5 7 10 9 8 9 15 16 12 10 10 8 7 8 10 11
18 16 15 15 15 15 15 16 16 16 16 15 14 14 12 12 13 13 13 12 11 12 12 12 13 12 12 14 13 15 15 12 15 21 21 21 22 14 12 12 12 12 11 10 9 10 11 11 12 17 17 14 12 12 14 16 12 12 11 12 12 13 11 10 8 6 6 6 5 4 5 5 6 6 7 7 8 11 10 8 8 8 10 10 10
15 15 15 15 15 16 15 16 16 16 15 14 14 13 13 13 13 13 13 12 11 12 13 12 12 12 12 12 12 14 13 15 12 21 21 22 22 19 13 13 12 11 10 10 10 9 9 10 9 15 19 19 17 14 14 16 14 12 12 12 12 5 6 7 6 6 5 4 3 4 4 4 4 5 5 4 4 3 5 7 6 6 8 10 12
15 15 15 16 16 16 16 14 15 14 14 13 13 13 13 13 12 12 11 11 12 12 11 11 11 11 11 12 12 12 12 15 11 18 21 22 22 24 14 14 12 11 10 11 10 10 10 9 10 11 20 19 18 16 16 14 16 11 12 14 11 5 10 7 7 6 3 3 4 4 4 5 5 4 4 4 4 3 4 6 7 8 9 10 11
15 15 15 15 15 15 15 16 14 12 13 14 14 13 12 12 12 11 11 11 11 12 12 11 11 10 11 11 11 12 12 10 14 11 19 21 23 22 21 15 12 12 11 12 11 11 10 9 8 12 17 17 17 16 15 17 12 11 15 13 10 9 5 8 8 6 3 2 3 4 4 5 5 4 4 5 5 6 7 7 7 8 9 10 11
14 14 14 15 14 14 14 15 14 12 13 13 13 13 13 12 12 11 11 11 11 12 12 12 12 13 13 12 11 11 10 12 12 15 15 21 20 22 21 19 12 12 11 11 9 9 9 9 5 15 14 14 13 13 14 13 10 15 14 11 9 7 6 6 5 5 2 2 4 4 4 4 4 3 4 5 7 8 8 7 7 8 9 9 10
14 14 14 14 14 13 13 13 13 13 13 13 13 13 13 13 12 11 11 12 12 12 12 11 11 11 12 11 11 11 12 12 11 14 19 19 20 20 20 21 19 13 9 12 10 1 9 15 15 13 13 13 13 11 10 13 12 11 12 11 8 6 5 4 4 4 5 5 4 4 3 2 2 2 3 4 6 6 6 6 7 7 7 8 9
14 14 13 13 14 14 14 14 13 13 14 12 13 12 13 13 12 12 12 13 12 12 11 12 12 12 11 12 11 12 12 11 12 10 14 16 16 19 20 20 20 17 14 3 11 12 11 13 14 14 12 12 10 8 8 7 8 10 10 9 5 5 3 4 4 3 3 4 3 3 2 2 2 3 3 3 4 5 6 7 7 7 8 9 10
12 12 12 12 13 13 14 12 12 13 14 12 12 12 12 12 12 12 13 12 13 12 12 12 12 12 12 11 11 11 11 11 11 10 9 9 9 10 12 12 14 11 10 6 7 6 10 10 9 10 9 10 8 10 10 11 8 5 5 6 6 4 4 4 4 3 4 4 4 3 3 3 3 3 3 4 4 4 6 7 7 8 9 9 9
12 12 13 12 11 12 12 12 13 11 13 13 12 12 12 12 12 13 13 13 13 13 13 13 13 13 12 12 12 11 11 11 10 11 10 9 10 10 12 11 10 11 11 12 12 11 7 8 10 8 8 7 7 6 6 6 6 7 7 6 5 5 4 5 4 4 5 5 4 3 3 3 4 4 4 4 5 5 6 6 7 8 8 8 9
10 11 11 11 10 10 11 11 12 10 11 11 9 2 5 10 12 12 12 12 12 13 14 12 12 12 12 12 11 11 10 11 11 9 6 4 7 9 11 11 12 11 14 14 12 12 9 10 10 9 9 9 8 7 7 7 7 7 8 7 7 7 7 6 6 6 5 4 3 2 3 3 3 3 3 3 4 4 4 5 5 6 7 8 9
10 10 10 9 9 10 10 10 11 10 9 11 7 5 8 12 10 2 3 10 13 12 10 3 3 7 11 11 4 8 7 2 5 10 9 8 9 11 5 12 12 10 14 17 13 12 11 10 10 11 11 10 10 9 9 8 8 8 8 8 7 7 7 8 7 6 4 4 3 3 2 2 2 3 3 3 3 3 3 4 5 6 7 7 8
8 8 9 9 9 10 8 8 9 9 8 9 6 8 5 7 14 13 10 9 11 12 12 12 12 11 7 0 8 15 11 12 14 13 13 13 11 11 12 13 13 15 17 14 11 12 10 10 10 10 10 10 9 9 9 9 9 9 9 9 8 9 8 8 7 6 5 5 4 3 3 3 2 2 3 2 3 4 3 3 5 5 6 7 7
7 8 8 7 8 8 8 8 8 8 9 8 6 8 8 7 4 12 14 12 14 15 15 15 14 13 11 7 4 5 9 12 13 12 11 11 12 12 13 14 15 17 18 15 10 11 10 10 11 11 11 11 9 9 10 10 10 10 10 10 10 9 9 9 7 7 7 6 5 5 4 4 3 3 3 2 3 4 3 4 4 5 6 6 7
8 8 7 8 8 8 8 9 9 8 10 8 6 7 10 10 9 5 7 13 15 16 17 16 15 12 11 10 10 9 11 10 13 13 12 11 12 12 13 14 16 16 15 9 9 10 9 10 10 11 11 11 9 10 9 9 10 10 10 10 9 9 7 5 5 6 6 6 6 6 5 4 3 3 4 4 4 3 3 4 4 4 5 6 6
5 4 6 7 6 7 7 7 7 8 8 8 9 10 11 10 10 7 7 5 5 10 16 18 14 10 12 10 10 12 13 13 13 14 13 13 13 13 12 7 9 6 1 6 6 6 6 6 7 7 7 7 7 7 8 9 8 8 7 6 6 5 5 5 6 6 6 5 6 5 5 4 3 4 3 3 3 4 4 4 3 3 4 5 7
5 7 10 3 6 5 5 6 6 7 7 7 8 9 8 8 5 6 7 8 7 4 4 7 12 11 7 8 10 12 12 12 12 12 14 15 15 15 16 13 10 5 3 4 5 6 6 5 6 5 6 7 7 7 7 7 6 6 6 5 6 6 6 6 6 6 6 6 5 5 3 3 3 3 4 4 3 3 3 3 3 3 4 5 6
1 3 4 3 4 5 5 4 4 5 5 6 7 7 7 6 6 5 5 6 8 7 6 6 6 7 13 14 15 16 17 16 15 14 13 11 11 13 12 9 8 8 6 5 6 6 6 6 6 6 6 6 6 6 6 7 6 6 6 7 7 7 7 6 4 4 3 4 4 3 3 5 3 4 4 4 4 4 3 3 4 3 5 5 6
7 4 2 1 2 4 4 4 4 3 5 5 5 5 5 6 6 7 8 7 8 7 8 8 8 9 10 9 13 16 17 17 14 13 11 9 7 6 9 9 9 9 7 7 7 7 7 7 7 7 6 6 6 6 7 6 5 4 4 3 3 2 3 2 3 4 4 4 4 4 5 3 2 4 4 3 3 3 3 3 4 4 4 5 7
9 9 8 9 4 3 3 5 6 5 5 5 5 6 6 6 8 8 8 8 8 9 9 9 9 9 11 10 7 8 12 14 16 13 10 8 5 6 9 9 9 9 9 8 7 7 7 6 6 7 6 6 7 6 6 6 6 6 5 4 3 3 2 4 4 3 3 3 4 4 5 4 4 3 3 4 3 3 4 4 5 5 5 5 5
8 11 14 14 8 3 5 4 6 5 4 4 5 5 7 8 10 9 10 10 10 9 10 10 9 10 12 13 13 12 13 11 8 9 8 7 6 6 6 6 6 7 8 8 8 7 7 7 6 5 6 5 4 5 5 6 5 5 4 6 6 6 6 5 5 4 5 4 4 4 3 3 2 2 3 4 3 4 4 5 5 5 6 6 5
7 7 9 14 3 4 2 4 4 4 4 4 5 6 7 8 9 10 10 10 10 10 10 10 10 10 11 12 12 9 9 10 9 9 9 9 7 7 7 7 6 6 7 8 8 8 8 7 6 6 5 5 5 5 5 5 5 5 4 4 5 5 4 3 3 4 4 3 3 3 3 3 2 2 4 3 3 5 6 5 5 5 5 6 6
6 6 7 9 13 6 8 8 6 5 5 5 6 6 7 7 8 9 10 10 8 7 8 9 11 8 5 5 5 5 9 10 11 10 9 9 9 8 8 8 8 8 8 7 7 8 8 8 7 7 6 5 5 5 5 6 6 6 5 4 3 3 3 3 2 3 2 4 3 3 2 3 3 3 5 5 5 7 6 6 7 6 6 6 7
7 7 6 6 7 8 7 7 7 8 8 7 7 6 6 6 7 8 9 10 11 9 9 9 9 9 12 17 15 15 12 11 10 10 9 9 9 9 9 9 9 9 8 8 7 8 8 8 7 6 6 6 6 5 5 6 6 5 5 5 4 4 5 5 3 2 2 2 2 2 2 3 3 5 6 6 7 7 7 7 7 7 8 6 7
8 7 7 6 7 6 5 6 7 8 8 8 8 8 7 7 7 7 8 9 10 11 11 12 9 8 9 10 12 13 10 10 10 9 9 10 8 7 7 7 7 7 7 7 7 6 7 7 7 7 7 6 6 5 5 4 5 5 5 4 3 3 2 2 1 1 2 2 2 2 4 4 5 6 7 8 7 8 8 7 7 7 7 7 8
6 6 7 7 7 6 6 6 7 8 9 10 10 9 8 8 8 8 8 9 10 10 11 10 9 10 9 9 8 10 10 9 9 8 8 8 8 7 6 6 6 7 8 8 7 7 6 7 7 8 7 7 7 7 7 6 6 6 6 5 5 5 4 4 5 5 5 5 4 4 4 4 4 6 8 7 7 7 7 7 7 7 7 7 7
6 6 6 6 7 7 7 7 8 8 9 9 9 9 9 8 8 9 9 9 9 9 9 10 9 9 9 8 9 11 11 9 9 8 8 8 7 7 7 7 7 7 7 7 7 7 7 7 8 8 9 8 8 8 7 7 7 7 6 6 5 5 4 4 4 5 5 5 5 5 5 5 5 5 5 5 6 7 7 7 7 8 8 7 7
6 6 6 6 6 7 7 7 7 7 7 8 8 8 8 8 8 9 9 9 9 9 9 10 10 11 10 10 9 9 9 9 9 8 8 8 7 7 7 7 7 7 7 7 7 7 8 8 8 8 8 8 7 7 7 7 6 6 6 6 5 4 3 3 4 4 4 5 5 5 5 5 5 5 5 6 7 7 7 7 8 8 8 8 8
6 6 6 6 7 7 7 7 6 7 7 8 8 8 8 8 8 10 10 10 10 9 9 9 10 10 10 11 10 9 8 8 8 9 9 9 9 8 8 8 8 8 7 7 7 8 8 8 8 8 8 7 7 7 6 6 6 5 5 5 5 5 4 5 4 4 4 4 4 5 4 4 4 5 5 5 6 6 7 7 8 9 8 8 8
6 7 7 7 7 7 7 7 8 8 8 8 8 8 8 8 8 9 8 9 9 9 10 10 9 10 10 10 10 8 8 8 8 8 8 8 8 8 9 9 8 7 8 8 8 8 8 8 8 8 7 7 7 7 7 7 7 7 6 6 7 8 9 10 5 5 4 5 4 5 5 5 5 5 5 5 5 6 6 7 7 8 8 9 8
8 8 8 8 9 8 8 8 8 8 8 8 8 9 8 8 8 8 8 8 9 9 9 9 10 9 10 11 11 11 10 9 8 8 9 8 8 9 9 9 9 8 8 8 8 8 8 8 8 8 8 8 8 8 8 8 8 8 8 8 10 14 12 11 7 6 9 7 4 4 5 5 5 5 5 5 5 5 6 6 7 8 8 9 9
9 10 9 10 10 10 9 9 9 9 8 8 8 9 9 9 8 8 8 9 9 9 9 9 9 9 9 9 9 10 9 8 7 7 8 8 8 8 9 9 9 9 8 8 8 8 8 8 8 8 8 7 7 7 7 8 8 8 8 9 12 13 13 13 8 10 9 5 5 4 4 5 5 5 6 6 6 6 7 6 7 7 8 8 9
10 11 10 10 9 9 9 8 7 9 10 10 9 9 9 10 9 9 9 9 9 9 9 8 9 9 9 7 8 8 8 8 8 8 7 7 7 7 8 8 9 9 9 9 8 8 8 7 7 7 7 8 8 8 8 8 8 8 9 12 13 15 14 13 10 12 13 11 5 5 5 5 5 6 6 6 7 7 8 9 8 8 8 8 8
Wind_Direction
183 186 187 191 192 193 195 198 203 205 206 205 205 204 204 207 204 205 198 204 201 200 203 205 207 209 213 212 213 214 215 216 214 215 214 213 212 215 221 208 214 223 227 235 234 226 224 228 229 231 233 232 232 236 235 221 221 228 230 229 233 227 225 237 258 272 272 265 273 277 282 280 276 268 269 270 268 256 227 239 247 249 249 249 252
186 184 186 189 192 193 194 195 198 201 202 199 201 201 203 202 204 202 204 201 202 204 203 204 207 208 211 210 211 210 208 209 214 211 214 213 211 208 209 211 216 223 228 228 231 236 228 228 229 227 224 230 237 239 237 238 224 226 221 229 238 233 221 237 248 266 277 273 266 267 274 265 268 258 262 269 274 273 270 265 254 246 248 254 252
185 183 185 185 188 189 191 193 193 197 198 197 200 201 201 202 200 202 205 202 201 207 205 207 205 206 210 209 207 209 207 207 211 212 212 212 212 214 210 208 211 216 218 224 226 227 230 227 227 225 222 223 225 237 245 243 246 244 241 239 240 240 231 224 244 260 271 277 276 276 272 270 269 276 269 268 269 267 266 264 261 261 256 252 256
186 184 185 187 187 187 189 191 192 195 198 200 200 202 201 200 198 202 204 206 201 202 209 209 205 205 207 207 206 207 205 206 207 208 209 211 212 213 215 213 214 217 221 224 225 226 229 229 232 229 224 226 231 236 236 237 236 235 240 239 243 245 245 237 231 253 273 283 280 280 286 284 278 273 272 265 266 265 261 266 264 265 266 268 267
186 185 186 186 186 188 189 192 194 196 198 200 201 202 203 200 197 201 202 207 205 200 203 208 206 205 207 206 206 207 207 206 207 210 209 210 213 214 213 214 217 220 223 224 228 231 231 234 233 228 225 229 230 232 234 227 227 234 234 234 237 243 250 253 257 263 272 276 284 283 286 280 277 276 273 274 271 267 261 259 266 272 273 273 275
186 185 186 186 186 188 189 192 195 196 199 200 201 201 201 202 198 199 203 204 205 206 201 203 204 204 206 207 206 207 207 207 207 209 211 210 210 215 214 216 218 220 221 222 223 226 231 230 232 230 228 228 233 234 235 232 229 233 235 235 237 244 251 255 260 262 267 274 282 287 281 280 280 272 270 268 271 276 272 268 273 273 274 276 274
185 185 187 187 186 187 189 192 193 196 197 200 200 199 201 201 201 199 200 203 202 206 203 202 202 204 205 207 208 206 206 207 206 206 210 212 211 212 217 216 218 220 222 225 226 225 227 229 229 229 230 229 232 234 232 232 235 241 237 236 236 241 247 252 253 259 268 276 280 277 281 276 274 278 268 263 266 266 280 292 287 275 270 275 276
185 186 187 188 186 187 190 190 193 193 194 196 199 200 200 200 200 200 199 202 204 205 206 202 201 204 205 207 208 206 205 206 206 206 205 208 210 212 215 219 219 219 223 224 228 230 229 230 229 226 228 229 230 232 234 237 239 242 241 233 232 236 252 262 268 270 272 274 277 283 283 284 275 266 268 265 272 272 265 285 296 300 298 290 287
185 185 187 189 187 186 185 186 190 190 192 192 197 199 198 198 197 198 199 203 205 207 207 207 202 205 206 207 206 206 207 207 207 203 202 203 209 212 214 216 219 222 224 226 223 228 234 235 233 234 226 223 226 234 244 252 243 247 246 239 237 248 256 263 267 267 269 270 272 272 271 268 269 274 272 271 282 293 304 302 293 292 299 301 300
184 185 188 188 185 182 182 183 186 187 189 190 193 194 195 195 196 198 199 203 204 206 208 208 209 206 205 205 206 206 208 210 200 197 200 202 203 211 210 215 219 221 221 225 229 227 229 234 238 229 226 211 208 216 227 235 239 249 258 252 247 248 248 246 253 259 264 267 268 268 269 269 273 274 284 292 295 293 297 303 302 306 306 299 296
184 185 186 184 181 179 179 182 184 187 189 189 189 191 193 193 196 198 201 202 205 202 207 208 211 210 207 206 206 207 208 210 187 185 194 203 206 204 209 212 212 217 220 220 228 230 230 229 238 222 203 204 210 214 223 226 228 231 241 251 260 260 259 251 251 257 260 262 266 266 268 273 272 278 287 298 302 306 301 296 297 301 301 306 307
184 183 182 180 178 178 179 181 184 186 186 188 187 189 191 192 195 197 199 200 202 203 205 208 211 213 212 211 211 211 213 203 178 185 190 194 202 209 210 212 214 216 219 223 224 226 228 230 227 229 225 222 229 221 222 228 229 229 234 239 240 245 247 253 256 255 255 260 264 267 274 275 278 278 289 303 307 297 293 295 294 296 299 296 295
182 181 180 178 178 178 179 182 184 185 186 185 185 187 191 194 195 196 200 200 198 203 205 205 208 212 216 216 218 216 221 188 180 185 190 192 197 209 222 221 220 219 219 221 225 225 224 223 229 228 233 201 216 236 244 232 220 226 229 234 241 238 236 239 244 249 261 265 267 267 262 266 274 281 298 305 297 294 298 297 298 298 298 296 291
181 182 180 179 179 178 179 182 184 186 184 184 186 188 191 195 196 196 198 198 202 204 205 206 207 208 213 217 219 225 229 180 181 184 189 190 193 199 223 225 229 230 227 225 223 223 221 223 221 224 225 223 223 230 240 249 254 222 213 222 234 227 220 225 228 233 240 249 254 257 256 253 263 282 291 287 287 289 294 294 298 299 298 292 294
182 182 181 181 179 179 181 183 184 184 184 186 188 192 194 197 197 198 201 201 202 204 205 206 207 208 210 214 217 223 231 190 180 185 187 187 188 194 217 226 230 231 230 229 229 227 223 221 224 226 224 224 224 224 236 244 244 252 255 243 233 245 238 216 209 213 217 227 238 247 254 262 265 270 276 282 280 279 286 294 298 297 296 297 294
181 181 182 182 183 182 181 183 184 184 186 189 192 195 196 198 198 199 204 206 206 205 206 210 209 210 212 215 219 222 226 193 179 184 186 187 179 194 213 222 227 231 231 230 228 227 226 226 225 225 225 227 221 217 235 248 255 260 258 256 258 254 251 245 234 191 209 217 225 241 252 249 233 265 280 288 290 289 294 294 292 288 294 300 298
182 182 185 185 184 184 185 185 185 187 189 191 195 196 196 196 198 197 202 206 205 205 206 208 211 213 212 213 217 221 226 197 178 181 184 180 174 201 209 217 222 225 231 229 228 228 225 222 224 226 226 227 218 198 214 228 249 257 262 264 263 263 261 254 205 204 217 227 235 273 10 335 274 270 275 278 269 281 287 286 278 279 286 291 295
183 183 186 185 184 184 185 186 185 187 189 193 195 197 196 196 197 197 202 205 209 207 205 209 210 213 214 215 213 217 225 199 178 181 181 175 183 198 207 214 220 222 227 228 228 229 227 219 223 226 230 229 211 194 206 205 237 248 257 263 262 258 257 257 253 205 219 245 292 273 261 264 258 252 253 253 252 241 239 250 267 282 282 282 288
185 185 186 185 184 184 185 186 187 188 192 195 196 196 197 198 199 198 204 206 210 209 209 211 212 213 216 218 207 214 225 207 176 182 181 178 187 201 208 214 218 220 222 224 224 226 229 214 209 221 227 233 204 193 194 199 231 246 254 260 260 261 260 265 264 267 242 212 215 218 239 226 231 240 238 227 228 211 222 244 274 280 286 293 297
188 186 183 183 183 183 184 186 189 190 191 192 194 196 196 198 200 199 203 206 207 212 210 213 215 215 216 218 214 215 223 225 180 183 181 181 189 198 209 212 218 218 220 223 221 223 225 231 205 199 217 224 216 187 188 199 225 244 252 252 259 260 267 267 278 300 306 324 304 306 304 296 284 265 252 239 211 196 211 232 260 276 288 294 297
182 183 182 183 183 184 186 187 190 191 191 191 192 195 197 201 201 201 204 206 208 212 214 215 217 220 221 218 223 219 219 225 185 182 182 184 189 199 210 213 216 217 220 220 226 227 226 226 239 187 200 212 214 193 189 202 219 240 246 252 255 318 350 287 266 95 267 281 294 288 295 286 266 265 265 262 279 258 231 250 303 310 308 301 300
178 180 182 185 185 186 188 186 189 191 191 189 192 196 199 201 202 201 205 206 209 209 212 217 221 222 221 223 225 225 217 209 216 181 185 186 189 198 208 214 211 215 219 230 226 232 233 232 244 185 188 202 212 200 198 200 216 228 247 259 282 293 268 272 276 276 286 308 311 305 304 303 302 305 301 294 297 309 323 326 319 309 296 291 291
177 179 180 183 185 186 186 184 185 190 191 190 192 193 195 199 201 201 203 207 206 212 214 217 222 225 227 227 227 229 233 212 211 190 187 188 192 196 207 214 200 213 225 229 230 233 235 233 232 157 180 191 200 197 196 206 209 227 241 255 254 245 248 259 274 282 288 320 326 313 303 293 294 300 313 330 328 340 329 324 313 301 292 288 288
174 177 177 181 182 184 184 185 187 189 187 187 190 190 193 194 195 197 202 208 210 215 219 221 225 228 229 230 228 229 222 234 206 193 180 192 191 195 202 215 212 215 220 234 230 225 232 232 183 140 160 170 179 182 188 186 201 214 223 221 220 226 243 251 241 229 179 232 236 247 253 262 286 305 333 341 331 329 319 309 295 290 294 302 302
174 177 177 179 181 182 183 185 187 187 186 186 188 192 192 190 193 194 199 207 215 218 218 218 219 223 227 226 228 224 226 226 233 189 178 183 192 194 201 206 215 221 222 230 240 349 82 97 110 124 132 146 153 160 170 188 201 182 186 187 197 229 226 238 232 188 208 211 220 223 231 237 275 318 350 329 315 304 304 309 319 317 313 311 311
174 176 177 180 181 182 183 186 186 188 187 189 191 193 191 192 196 194 200 207 212 214 214 215 216 217 221 226 226 227 220 227 229 211 174 179 188 194 198 201 209 209 216 91 89 115 117 114 122 128 131 136 145 161 173 160 167 162 169 181 198 223 248 249 238 240 263 266 274 294 294 322 326 4 344 309 324 332 330 327 325 328 338 333 328
173 177 180 182 183 187 186 188 188 188 192 192 193 195 195 196 197 198 198 205 207 209 213 214 216 215 220 223 225 226 224 224 223 220 167 174 185 186 197 206 207 201 210 195 172 122 145 152 151 157 144 163 139 113 114 121 126 136 159 187 200 219 234 244 260 278 282 292 286 286 312 337 346 331 333 347 328 337 345 340 334 339 335 334 323
179 182 183 183 185 188 191 189 190 191 191 195 196 196 198 202 200 197 199 201 204 206 208 212 213 215 218 218 222 223 225 225 222 222 213 187 191 190 190 195 184 191 196 201 204 200 160 122 125 128 122 122 113 123 131 140 143 154 165 178 196 213 232 262 268 264 269 270 296 324 324 332 320 344 338 339 350 347 352 346 341 328 326 323 316
183 184 184 187 191 188 193 191 196 198 189 196 197 171 217 208 203 201 204 206 209 210 213 211 211 219 222 223 222 225 227 226 221 218 218 198 207 203 191 192 190 185 198 187 182 195 176 175 178 160 158 152 141 142 147 155 156 161 165 177 190 198 199 204 212 220 219 242 255 277 293 309 319 326 328 327 350 339 344 339 322 313 313 313 309
184 186 186 189 193 186 194 193 195 200 196 195 153 101 59 56 33 3 190 16 12 20 32 245 262 246 229 222 241 237 240 266 47 151 126 123 87 57 87 156 182 183 166 162 171 185 184 193 186 179 172 167 164 159 160 160 160 169 177 178 179 185 193 198 205 204 201 222 226 243 260 278 283 303 311 314 327 323 320 305 305 312 308 309 311
185 187 186 190 187 196 192 193 188 197 200 202 169 144 138 74 56 52 45 36 39 31 31 23 22 32 26 331 71 59 72 72 67 74 85 90 97 101 103 117 123 134 144 153 179 188 182 192 184 180 177 176 166 162 158 159 164 170 173 175 185 183 191 199 199 194 192 203 212 220 206 232 248 262 282 291 303 298 290 280 282 289 299 307 309
182 189 187 186 168 182 194 196 194 193 202 200 178 194 190 171 126 51 46 49 54 54 43 31 20 17 33 48 58 100 66 77 90 90 97 104 116 120 121 126 136 144 161 166 183 192 189 188 184 182 179 179 162 156 164 166 167 174 174 179 186 178 193 202 185 186 189 191 192 195 202 208 216 228 254 262 282 270 281 282 282 297 305 303 309
177 181 184 183 184 191 195 195 199 194 202 195 191 210 211 209 194 161 69 57 68 65 50 40 33 26 24 45 60 93 121 119 109 111 111 118 124 133 139 144 151 158 151 176 197 189 190 191 185 181 181 179 158 160 161 163 173 180 182 185 178 178 187 140 161 201 189 184 184 188 197 200 220 221 233 244 251 258 267 275 281 292 306 308 314
144 163 169 171 174 183 189 189 192 200 201 205 206 207 216 213 220 183 154 160 95 83 68 48 31 35 49 54 87 106 114 117 119 122 126 128 133 132 120 105 93 95 37 213 207 196 179 167 163 162 165 144 140 147 158 170 183 177 172 163 153 137 121 150 187 192 181 166 199 176 201 212 188 235 229 246 246 259 257 268 268 299 315 319 323
118 57 33 354 180 173 177 174 187 191 183 196 202 208 205 206 192 151 193 201 180 124 59 47 33 25 74 77 77 88 94 101 110 120 129 133 127 121 108 113 119 136 75 61 75 87 96 107 117 112 118 125 135 139 133 133 132 130 136 140 140 151 165 184 193 189 186 175 192 183 193 209 215 232 240 238 261 266 271 285 280 297 307 312 323
130 151 147 168 184 176 182 174 161 154 169 181 188 190 191 178 168 172 174 109 98 101 91 74 85 67 80 86 97 98 97 98 99 100 102 113 137 136 125 134 139 145 124 88 86 83 88 93 104 103 101 106 117 132 143 147 147 141 144 156 170 169 171 164 166 185 199 188 169 167 189 216 218 246 240 231 241 257 283 303 296 313 309 321 320
26 33 75 61 199 175 157 136 132 137 162 171 171 166 148 151 165 139 131 122 113 109 117 128 122 97 80 83 100 106 110 111 114 116 123 135 197 189 129 134 138 134 122 112 110 109 104 109 116 120 126 131 130 129 131 125 109 98 89 91 96 136 124 109 146 166 188 190 176 188 221 217 222 235 268 270 275 288 293 305 296 305 311 313 298
44 27 22 0 356 70 77 94 81 99 152 157 151 164 164 142 123 120 125 120 130 130 131 134 130 123 120 117 134 121 117 113 104 87 77 73 73 110 122 125 125 122 122 120 121 123 117 122 132 135 140 143 146 142 139 137 140 140 145 141 132 102 125 147 144 193 205 214 190 186 217 211 219 240 248 264 290 303 300 300 310 319 315 315 324
63 50 15 344 2 13 140 143 147 160 132 151 153 142 108 130 139 134 138 138 139 139 138 135 134 127 131 136 134 133 128 123 114 109 97 86 78 82 79 88 96 105 110 115 121 126 129 129 129 131 135 130 130 135 132 131 136 139 150 167 171 160 179 191 165 188 202 201 196 205 215 221 232 255 276 278 287 304 299 304 307 312 314 318 330
39 40 22 346 48 73 95 112 114 119 122 129 128 123 115 126 131 133 137 141 142 145 144 140 137 137 139 143 143 143 125 118 113 114 113 110 105 104 100 100 97 102 110 118 127 130 129 129 124 122 111 118 145 144 130 130 145 155 172 181 176 170 171 181 169 192 196 202 210 213 218 230 242 271 276 279 306 305 292 297 302 303 309 312 317
36 52 52 32 355 16 45 37 57 71 87 93 110 122 126 129 134 136 134 129 124 118 123 126 128 122 106 85 82 118 129 123 123 119 114 110 98 83 77 83 82 80 75 81 96 105 108 109 106 107 108 113 116 123 134 144 153 169 163 168 173 170 183 171 185 206 201 216 225 224 230 235 259 278 289 312 297 276 285 293 297 304 301 306 310
26 31 36 40 39 44 47 48 57 55 59 76 85 96 112 121 128 132 127 124 119 113 106 92 85 86 78 75 75 79 98 100 97 95 93 94 92 90 86 86 87 91 96 103 108 112 112 109 110 114 117 119 122 130 151 167 174 170 175 187 178 178 202 189 194 232 262 255 243 249 276 297 301 288 265 248 278 299 298 297 306 298 301 307 300
24 26 29 40 43 53 56 63 57 57 57 60 69 71 77 85 100 106 110 109 110 110 107 105 96 78 69 68 88 90 89 86 86 86 90 93 89 79 77 79 79 85 87 85 86 87 92 94 91 87 82 76 69 63 62 51 24 27 42 53 40 21 3 14 357 312 326 305 292 316 287 272 266 277 293 299 300 295 300 298 293 299 303 303 303
38 37 38 40 50 57 60 64 69 71 71 66 61 56 63 74 76 76 81 91 96 98 100 100 99 92 82 56 68 98 94 88 84 84 81 81 81 83 79 75 74 74 70 70 68 71 78 86 90 86 82 77 68 65 64 56 49 48 44 47 56 29 26 22 12 8 357 347 336 311 295 291 289 280 283 292 298 299 294 297 298 301 310 303 303
41 36 44 48 46 54 58 64 70 77 79 77 70 61 59 57 62 69 74 78 80 88 91 97 95 95 90 85 88 94 97 88 81 80 79 83 85 83 81 79 74 70 70 69 72 76 81 78 75 74 73 68 60 56 53 49 45 46 44 37 42 38 21 3 353 341 332 328 331 330 327 322 318 312 317 318 306 296 296 303 309 307 295 297 304
37 41 50 60 62 62 60 65 67 74 82 86 88 80 71 66 63 64 66 68 71 78 83 89 96 96 97 92 83 82 85 88 88 85 82 79 76 75 71 71 71 68 64 60 59 62 65 67 71 73 68 65 60 59 56 55 50 48 41 40 31 24 3 335 324 317 322 326 326 324 323 321 318 323 329 314 304 309 307 306 298 296 303 301 299
40 56 58 68 69 69 63 63 68 75 80 85 89 82 79 71 73 74 73 73 72 70 71 77 82 85 88 94 95 82 78 81 83 86 86 85 84 84 83 77 72 68 65 63 59 61 58 60 63 65 66 66 66 62 61 60 60 54 50 38 27 2 0 344 320 304 308 309 296 280 291 291 295 291 297 299 300 300 306 303 302 302 299 301 304
50 58 65 67 65 65 65 65 71 72 76 78 82 84 87 89 86 81 81 79 78 78 80 77 74 79 84 86 86 80 77 78 78 77 82 82 80 81 79 80 79 76 74 66 57 53 52 56 58 62 64 60 58 55 50 44 45 36 34 31 21 1 336 323 305 311 318 307 286 287 289 292 297 304 304 304 306 317 312 310 311 308 311 307 298
47 52 55 54 58 56 57 53 52 58 68 74 78 81 84 87 85 82 79 79 79 80 83 86 85 82 80 82 87 89 88 85 86 86 86 85 84 82 80 78 76 73 72 68 64 57 55 56 57 57 56 53 49 49 48 41 34 33 25 26 2 343 333 323 311 345 302 277 270 273 282 289 306 310 314 309 311 309 305 306 308 312 307 302 301
54 58 61 62 64 63 62 61 55 57 58 64 69 74 72 73 73 76 79 81 79 74 73 76 82 85 88 85 84 84 85 80 76 83 86 86 81 78 76 74 74 74 72 69 66 61 58 55 54 58 59 61 61 60 55 51 41 32 25 7 346 343 349 336 329 345 331 331 311 324 330 332 329 328 321 324 330 321 317 319 320 310 303 302 299
51 50 50 50 52 55 55 56 56 53 53 55 58 62 66 67 66 64 68 71 74 74 73 75 79 79 76 77 80 83 80 77 70 65 61 61 66 75 81 84 86 86 84 79 73 68 60 58 58 59 60 59 58 59 54 50 42 30 12 2 1 0 359 357 355 342 338 327 324 354 351 350 344 343 340 348 345 337 333 320 306 304 302 299 300